[[{"header":{"parameterUnit":"m.s-1","parameterCategory":1,"la1":30.2991,"la2":30.254,"lo1":-89.0895,"lo2":-89.0444,"dy":0.0017,"dx":0.0017,"nx":28,"ny":28,"refTime":"2024-08-03T21:00:00:Z","depth":0,"parameterNumber":2,"parameterNumberName":"U-component_of_WINDS"},"data":[0,0,0,0,0,0,0,0,0,0,0,0,0,0,0,0,0,0,0,0,0,0,0,0,0,0,0,0,0,0,0,0,0,0,0,0,0,0,0,0,0,0,0,0,0,0,0,0,0,0,0,0,0,0,0,0,0,0,-1.7564,-1.7563,0,-1.7534,-1.7534,-1.7533,-1.7467,-1.7465,-1.7464,-1.7463,-1.7435,-1.7435,-1.7436,0,0,0,0,0,0,0,0,0,0,0,0,0,-1.7568,-1.7568,-1.7564,-1.7563,-1.7563,-1.7534,-1.7534,-1.7533,-1.7467,-1.7465,-1.7464,-1.7462,-1.7435,-1.7435,-1.7436,0,0,0,0,0,0,0,0,0,0,0,0,0,-1.7555,-1.7568,-1.7564,-1.7526,-1.7523,-1.7534,-1.7534,-1.7533,-1.7467,-1.7465,-1.7463,-1.7461,-1.7434,-1.7435,-1.7436,-1.7482,0,0,-1.7438,-1.7439,0,0,0,0,0,0,0,0,-1.7556,-1.7555,-1.7532,-1.7529,-1.7525,-1.7502,-1.7525,-1.7516,-1.7468,-1.7488,-1.7463,-1.746,-1.7459,-1.7458,-1.7457,-1.7481,-1.748,-1.7439,-1.7439,-1.7439,-1.744,0,0,0,0,0,0,0,-1.7557,-1.7556,-1.7552,-1.7532,-1.7527,-1.7513,-1.7509,-1.7523,-1.7486,-1.7486,-1.7482,-1.7479,-1.7457,-1.7456,-1.7456,-1.7479,-1.7439,-1.7439,-1.744,-1.744,-1.7546,-1.7548,0,0,0,0,0,0,-1.7563,-1.7557,-1.7553,-1.7551,-1.7536,-1.7514,-1.751,-1.7511,-1.7485,-1.7479,-1.7481,-1.7476,-1.7456,-1.7455,-1.7454,-1.7511,-1.7439,-1.744,-1.7441,-1.7544,-1.7547,-1.7549,0,0,0,0,0,0,-1.7563,-1.7563,-1.7554,-1.7553,-1.7551,-1.7516,-1.7519,-1.7512,-1.7511,-1.7481,-1.7474,-1.7487,-1.7454,-1.7453,-1.7477,-1.7508,-1.7441,-1.7441,-1.7541,-1.7545,-1.7548,-1.7621,0,0,0,0,0,0,-1.7563,-1.7563,-1.7579,-1.7554,-1.7551,-1.7576,-1.7521,-1.7513,-1.7513,-1.7506,-1.7485,-1.7479,-1.7452,-1.7476,-1.7478,-1.7508,-1.7442,-1.7538,-1.7543,-1.7547,-1.7616,-1.7627,-1.7636,0,0,0,0,0,-1.7564,-1.76,-1.758,-1.758,-1.757,-1.7578,-1.7576,-1.7544,-1.7515,-1.7532,-1.7514,-1.748,-1.7505,-1.7479,-1.748,-1.7512,-1.7536,-1.7541,-1.7547,-1.7611,-1.7625,-1.7636,0,0,0,0,0,0,-1.763,-1.7596,-1.7573,-1.7602,-1.7594,-1.7566,-1.7586,-1.7558,-1.7557,-1.7551,-1.7512,-1.7508,-1.7538,-1.7527,-1.7499,-1.7558,-1.7515,-1.7521,-1.7564,-1.7577,-1.7587,-1.7589,-1.7443,0,0,0,0,0,-1.7648,-1.7656,-1.7626,-1.7655,-1.7652,-1.762,-1.7622,-1.7598,-1.7588,-1.7584,-1.7566,-1.7559,-1.7565,-1.757,-1.7574,-1.7614,-1.7611,-1.7637,-1.7647,-1.7655,-1.7661,-1.7687,-1.7699,-1.7567,-1.7566,-1.7566,0,0,-1.7685,-1.7667,-1.7675,-1.7668,-1.7658,-1.767,-1.7617,-1.763,-1.7639,-1.7586,-1.7608,-1.7596,-1.7585,-1.7618,-1.7632,-1.761,-1.7697,-1.7662,-1.7669,-1.767,-1.7693,-1.7706,-1.7717,-1.757,-1.7569,-1.7569,0,0,-1.7759,-1.7745,-1.7769,-1.7762,-1.7748,-1.7727,-1.7734,-1.7712,-1.7702,-1.7723,-1.7685,-1.7696,-1.7706,-1.7701,-1.77,-1.7778,-1.7749,-1.778,-1.7834,-1.7859,-1.787,-1.7879,-1.791,-1.7921,-1.7786,-1.7786,-1.7787,0,-1.7807,-1.7821,-1.7785,-1.7803,-1.7803,-1.7755,-1.7782,-1.7776,-1.7765,-1.7767,-1.7742,-1.7758,-1.7747,-1.7781,-1.78,-1.78,-1.7808,-1.7783,-1.7871,-1.7879,-1.7888,-1.7917,-1.7929,-1.7791,-1.779,-1.779,-1.7789,0,-1.7883,-1.7894,-1.7916,-1.7907,-1.7909,-1.7931,-1.7901,-1.7908,-1.7885,-1.7868,-1.7894,-1.7879,-1.7882,-1.7888,-1.7865,-1.792,-1.7908,-1.7877,-1.7834,-1.7905,-1.7932,-1.7943,-1.7797,-1.7795,-1.7794,-1.7793,0,0,-1.7996,-1.797,-1.7979,-1.7976,-1.796,-1.7969,-1.799,-1.7992,-1.8001,-1.7996,-1.8015,-1.8028,-1.8001,-1.8,-1.7977,-1.7999,-1.8066,-1.7966,-1.7965,-1.7988,-1.8132,-1.8156,-1.8169,-1.8047,-1.8049,-1.805,-1.8134,0,-1.8068,-1.8102,-1.8072,-1.8113,-1.8125,-1.8083,-1.8102,-1.8096,-1.8082,-1.8092,-1.8076,-1.8087,-1.8049,-1.8049,-1.8069,-1.8054,-1.8095,-1.8047,-1.8067,-1.8068,-1.8073,-1.8183,-1.8208,-1.8287,-1.8144,-1.8145,-1.8147,0,-1.8155,-1.8156,-1.8198,-1.8183,-1.8187,-1.8205,-1.8207,-1.8216,-1.821,-1.8198,-1.82,-1.8172,-1.8195,-1.8153,-1.8186,-1.8155,-1.8161,-1.8156,-1.8158,-1.816,-1.8113,-1.8191,-1.8311,-1.8324,-1.8162,-1.8161,-1.816,0,-1.8238,-1.8249,-1.8276,-1.8275,-1.8257,-1.8272,-1.8265,-1.8257,-1.8262,-1.8264,-1.8268,-1.8273,-1.8277,-1.8283,-1.8259,-1.823,-1.8298,-1.8252,-1.8292,-1.8293,-1.8309,-1.8308,-1.8435,-1.831,-1.831,-1.8309,-1.8309,0,-1.8322,-1.8351,-1.8314,-1.8331,-1.8363,-1.833,-1.8363,-1.8353,-1.8347,-1.8363,-1.8327,-1.8344,-1.831,-1.8324,-1.8306,-1.8339,-1.834,-1.8334,-1.8329,-1.8338,-1.834,-1.8343,-1.8338,-1.8312,-1.8312,-1.8311,-1.8311,0,-1.842,-1.8396,-1.8424,-1.8406,-1.8402,-1.8427,-1.8413,-1.843,-1.8414,-1.8436,-1.844,-1.8416,-1.8432,-1.8408,-1.8421,-1.8409,-1.8456,-1.8441,-1.8458,-1.8455,-1.8497,-1.8495,-1.8632,-1.865,-1.8511,-1.8513,-1.8514,0,-1.8476,-1.8497,-1.8482,-1.8491,-1.8487,-1.85,-1.8506,-1.8476,-1.8484,-1.8481,-1.8499,-1.8512,-1.852,-1.8548,-1.8533,-1.8544,-1.8532,-1.8579,-1.8533,-1.8543,-1.8536,-1.8536,-1.854,-1.8589,-1.859,-1.8592,-1.8593,0,-1.858,-1.8568,-1.8577,-1.8583,-1.8591,-1.8594,-1.8595,-1.8605,-1.8574,-1.8585,-1.86,-1.8607,-1.8622,-1.8636,-1.8644,-1.864,-1.8613,-1.8608,-1.8618,-1.8629,-1.8639,-1.8637,-1.8486,-1.8605,-1.8604,-1.8603,-1.8602,-1.8602,-1.866,-1.8679,-1.8673,-1.8685,-1.8683,-1.8686,-1.8702,-1.869,-1.8702,-1.8711,-1.8693,-1.8715,-1.8712,-1.872,-1.872,-1.8738,-1.8718,-1.8732,-1.8736,-1.874,-1.8749,-1.8635,-1.8739,-1.8739,-1.8738,-1.8738,-1.8738,0,-1.8765,-1.876,-1.8771,-1.8775,-1.8786,-1.8759,-1.876,-1.8771,-1.879,-1.879,-1.88,-1.8821,-1.8836,-1.8824,-1.8837,-1.8854,-1.8843,-1.8859,-1.8858,-1.8859,-1.8764,-1.8755,-1.8869,-1.8869,-1.8868,-1.8868,-1.8868,-1.8868,-1.8821,-1.8852,-1.884,-1.8872,-1.8866,-1.8887,-1.889,-1.8894,-1.8894,-1.8919,-1.8931,-1.8923,-1.892,-1.8933,-1.8947,-1.8944,-1.8952,-1.8973,-1.8966,-1.8878,-1.8865,-1.8853,-1.8844,-1.8974,-1.8975,-1.9059,-1.906,-1.9061]},{"header":{"parameterUnit":"m.s-1","parameterCategory":1,"la1":30.2991,"la2":30.254,"lo1":-89.0895,"lo2":-89.0444,"dy":0.0017,"dx":0.0017,"nx":28,"ny":28,"refTime":"2024-08-03T21:00:00:Z","depth":0,"parameterNumber":3,"parameterNumberName":"V-component_of_WINDS"},"data":[0,0,0,0,0,0,0,0,0,0,0,0,0,0,0,0,0,0,0,0,0,0,0,0,0,0,0,0,0,0,0,0,0,0,0,0,0,0,0,0,0,0,0,0,0,0,0,0,0,0,0,0,0,0,0,0,0,0,2.3575,2.3575,0,2.3564,2.3564,2.3564,2.3566,2.3567,2.3567,2.3567,2.3554,2.3554,2.3553,0,0,0,0,0,0,0,0,0,0,0,0,0,2.3595,2.3594,2.3575,2.3575,2.3575,2.3564,2.3564,2.3564,2.3566,2.3567,2.3567,2.3567,2.3555,2.3554,2.3553,0,0,0,0,0,0,0,0,0,0,0,0,0,2.3585,2.3594,2.3575,2.3575,2.3574,2.3564,2.3564,2.3564,2.3566,2.3567,2.3567,2.3567,2.3555,2.3554,2.3553,2.3542,0,0,2.3551,2.355,0,0,0,0,0,0,0,0,2.3586,2.3584,2.3575,2.3575,2.3574,2.3567,2.3566,2.3556,2.3566,2.3569,2.3567,2.3567,2.3558,2.3557,2.3554,2.3541,2.3541,2.3551,2.355,2.355,2.355,0,0,0,0,0,0,0,2.3586,2.3585,2.3571,2.3575,2.3574,2.3574,2.3573,2.3564,2.3562,2.3569,2.3569,2.3568,2.3558,2.3555,2.3554,2.3541,2.3551,2.355,2.3549,2.3549,2.3515,2.3515,0,0,0,0,0,0,2.3587,2.3585,2.3571,2.357,2.3581,2.3573,2.3572,2.3569,2.3562,2.3562,2.3568,2.3568,2.3556,2.3555,2.3554,2.3538,2.355,2.3549,2.3549,2.3516,2.3515,2.3515,0,0,0,0,0,0,2.3588,2.3586,2.3571,2.3578,2.3576,2.3573,2.3569,2.3569,2.3566,2.3561,2.3561,2.3565,2.3557,2.3555,2.3544,2.3538,2.3549,2.3548,2.3516,2.3515,2.3515,2.3509,0,0,0,0,0,0,2.3588,2.3586,2.3583,2.3578,2.3576,2.3563,2.3569,2.3568,2.3565,2.3565,2.3559,2.3558,2.3557,2.3546,2.3544,2.3537,2.3547,2.3517,2.3516,2.3515,2.3509,2.3508,2.3507,0,0,0,0,0,2.3589,2.3582,2.3583,2.3581,2.3571,2.3563,2.3561,2.3561,2.3564,2.356,2.3557,2.3558,2.3539,2.3545,2.3542,2.3535,2.3517,2.3516,2.3515,2.351,2.3508,2.3507,0,0,0,0,0,0,2.3586,2.3581,2.3582,2.3573,2.3568,2.3563,2.3558,2.3559,2.3553,2.3554,2.3552,2.3551,2.354,2.3537,2.3543,2.3523,2.3528,2.3527,2.3525,2.3523,2.3522,2.3522,2.3547,0,0,0,0,0,2.3584,2.3578,2.3574,2.3566,2.3564,2.3561,2.3558,2.3557,2.3552,2.355,2.3546,2.3541,2.3533,2.3528,2.3521,2.3509,2.3506,2.3503,2.3502,2.35,2.3499,2.349,2.3487,2.3511,2.3511,2.3511,0,0,2.358,2.3577,2.3573,2.3565,2.3562,2.3555,2.356,2.3553,2.3547,2.3549,2.3539,2.3535,2.3529,2.3517,2.3511,2.3514,2.3492,2.3499,2.3498,2.3497,2.3488,2.3486,2.3484,2.3511,2.3511,2.3511,0,0,2.3569,2.3567,2.3559,2.3555,2.355,2.3548,2.3546,2.3541,2.3538,2.3528,2.3529,2.3522,2.3509,2.3504,2.35,2.3485,2.3485,2.3483,2.3475,2.3466,2.3464,2.3462,2.3455,2.3453,2.3481,2.3481,2.3481,0,2.3565,2.3555,2.3555,2.3547,2.3543,2.3545,2.3536,2.3532,2.3524,2.3521,2.3524,2.3507,2.3503,2.3488,2.3485,2.3482,2.3478,2.3483,2.3465,2.3463,2.3461,2.3454,2.3452,2.3481,2.3481,2.3481,2.3481,0,2.3549,2.3542,2.3537,2.3529,2.3524,2.3516,2.3514,2.3508,2.3508,2.3505,2.3493,2.3488,2.3479,2.3476,2.3476,2.3461,2.3462,2.3465,2.347,2.3458,2.3452,2.3449,2.348,2.348,2.3481,2.3481,0,0,2.3537,2.3528,2.3526,2.3522,2.3515,2.3509,2.35,2.3491,2.3486,2.348,2.3471,2.346,2.3462,2.3457,2.3456,2.3448,2.3434,2.3452,2.3451,2.3447,2.3415,2.3412,2.3409,2.3435,2.3434,2.3434,2.3415,0,2.3524,2.3509,2.3508,2.3494,2.3486,2.3487,2.3479,2.3473,2.347,2.3462,2.3458,2.3449,2.3453,2.345,2.3442,2.3438,2.3427,2.3439,2.3425,2.3424,2.3425,2.3406,2.3403,2.3385,2.3412,2.3412,2.3411,0,2.3508,2.3501,2.3486,2.3479,2.3476,2.3469,2.3459,2.3453,2.3445,2.3443,2.3436,2.3436,2.3425,2.3431,2.3414,2.3422,2.3416,2.3412,2.3412,2.3409,2.3416,2.3401,2.3379,2.3376,2.3408,2.3408,2.3408,0,2.3498,2.3486,2.3475,2.3471,2.3462,2.3457,2.3453,2.3446,2.344,2.3432,2.3427,2.3418,2.3412,2.3404,2.34,2.3405,2.3383,2.3389,2.3379,2.3379,2.3374,2.3374,2.3349,2.3372,2.3372,2.3372,2.3372,0,2.3484,2.3474,2.347,2.3463,2.3451,2.3449,2.3438,2.3434,2.3427,2.3418,2.3418,2.3409,2.3405,2.3395,2.3392,2.3377,2.3375,2.3372,2.3371,2.3371,2.3371,2.3366,2.3367,2.3371,2.3372,2.3372,2.3372,0,2.3471,2.3468,2.3455,2.3448,2.3446,2.3437,2.343,2.3422,2.3419,2.3407,2.3404,2.3398,2.3386,2.3382,2.3367,2.3365,2.3347,2.3348,2.335,2.3349,2.3338,2.3339,2.3308,2.3303,2.3331,2.3331,2.3331,0,2.3461,2.3454,2.3445,2.3439,2.3435,2.3426,2.342,2.3417,2.341,2.34,2.3393,2.3381,2.3371,2.3352,2.3345,2.3333,2.3333,2.3323,2.3331,2.333,2.333,2.333,2.3328,2.3321,2.3321,2.332,2.332,0,2.3444,2.3442,2.3434,2.3424,2.3417,2.3409,2.3402,2.3397,2.3392,2.3384,2.3372,2.3365,2.3349,2.3336,2.3324,2.3318,2.3317,2.3318,2.3314,2.3314,2.3314,2.3312,2.3344,2.3318,2.3319,2.3319,2.3319,2.3319,2.3432,2.3424,2.3416,2.3406,2.34,2.3392,2.3384,2.3379,2.3369,2.3357,2.3355,2.3341,2.3332,2.3315,2.3308,2.3296,2.3298,2.3294,2.3293,2.3291,2.3289,2.3317,2.3294,2.3294,2.3294,2.3294,2.3294,0,2.3413,2.3408,2.3398,2.3387,2.3379,2.338,2.3371,2.3363,2.3351,2.3342,2.3332,2.3317,2.3304,2.3296,2.3282,2.3274,2.3273,2.3271,2.327,2.3268,2.3289,2.3293,2.3271,2.3271,2.3271,2.3271,2.3271,2.3271,2.3402,2.3389,2.3386,2.3369,2.3363,2.335,2.3344,2.3336,2.3329,2.3312,2.3302,2.3296,2.3287,2.3272,2.326,2.3257,2.3251,2.3248,2.3246,2.3265,2.3267,2.327,2.3273,2.3247,2.3247,2.3226,2.3225,2.3225]}]]